, AK

(GMT )
Northway

Weather History for PAOR - February, 2014

Change the Weather History Date:

Wednesday, February 26, 2014

  Actual Average Record
Temperature  
Mean Temperature -8 °F -  
Max Temperature 8 °F 14 °F 39 °F (1991)
Min Temperature -25 °F -13 °F -53 °F (1982)
Degree Days  
Heating Degree Days 74    
Moisture  
Dew Point -17 °F    
Average Humidity 77    
Maximum Humidity 86    
Minimum Humidity 70    
Precipitation  
Precipitation 0.00 in - - ()
Snow  
Snow 0.00 in - - ()
Snow Depth 15.00 in    
Sea Level Pressure  
Sea Level Pressure 30.31 in    
Wind  
Wind Speed 0 mph (North)    
Max Wind Speed 0 mph    
Max Gust Speed -    
Visibility 10 miles    
Events      
Averages and records for this station are not official NWS values.
T = Trace of Precipitation, MM = Missing Value Source: NWS Daily Summary

Daily Weather History Graph

Daily Weather History Graph

Search for Another Location

Airport or City:

Trip Planner

Search our weather history database for the weather conditions in past years. The results will help you decide how hot, cold, wet, or windy it might be!

Date:

Astronomy

Feb. 26, 2014 Rise Set
Actual Time 7:41 AM AKST 5:40 PM AKST
Civil Twilight 6:55 AM AKST 6:27 PM AKST
Nautical Twilight 6:02 AM AKST 7:20 PM AKST
Astronomical Twilight 5:08 AM AKST 8:14 PM AKST
Moon 6:16 AM AKST (2/26) 2:28 PM AKST (2/26)
Length of Visible Light 11h 32m
Length of Day
9h 59m
Waning Crescent, 9% of the Moon is Illuminated
Feb 26
Waning Crescent
Feb 28
New
Mar 8
First Quarter
Mar 16
Full
Mar 23
Last Quarter

Hourly Weather History & Observations

Time (AKST) Temp. Dew Point Humidity Pressure Visibility Wind Dir Wind Speed Gust Speed Precip Events Conditions
12:53 AM -20.9 °F -26.0 °F 77% 30.41 in 10.0 mi Calm Calm - N/A   Clear
1:53 AM -20.0 °F -26.0 °F 74% 30.39 in 10.0 mi Calm Calm - N/A   Clear
2:53 AM -22.0 °F -27.9 °F 74% 30.38 in 10.0 mi Calm Calm - N/A   Clear
3:53 AM -23.1 °F -29.0 °F 74% 30.38 in 10.0 mi Calm Calm - N/A   Clear
4:53 AM -24.0 °F -29.9 °F 74% 30.37 in 10.0 mi Calm Calm - N/A   Clear
5:53 AM -25.1 °F -31.0 °F 74% 30.37 in 10.0 mi Calm Calm - N/A   Clear
6:53 AM -25.1 °F -31.0 °F 74% 30.38 in 10.0 mi Calm Calm - N/A   Partly Cloudy
7:53 AM -25.1 °F -31.0 °F 74% 30.39 in 10.0 mi Calm Calm - N/A   Partly Cloudy
8:53 AM -20.9 °F -25.1 °F 81% 30.39 in 10.0 mi Calm Calm - N/A   Partly Cloudy
9:53 AM -11.9 °F -15.0 °F 86% 30.36 in 10.0 mi Calm Calm - N/A   Partly Cloudy
10:53 AM -7.1 °F -11.0 °F 83% 30.35 in 10.0 mi Calm Calm - N/A   Partly Cloudy
11:53 AM -2.9 °F -8.0 °F 79% 30.32 in 10.0 mi Calm Calm - N/A   Partly Cloudy
12:53 PM 1.0 °F -5.1 °F 75% 30.30 in 10.0 mi Calm Calm - N/A   Partly Cloudy
1:53 PM 3.0 °F -2.0 °F 80% 30.27 in 10.0 mi Calm Calm - N/A   Partly Cloudy
2:53 PM 7.0 °F -0.0 °F 73% 30.25 in 10.0 mi Calm Calm - N/A   Partly Cloudy
3:53 PM 8.1 °F -0.0 °F 70% 30.23 in 10.0 mi Calm Calm - N/A   Partly Cloudy
4:53 PM 7.0 °F 1.0 °F 77% 30.22 in 10.0 mi Calm Calm - N/A   Partly Cloudy
5:53 PM -2.0 °F -6.0 °F 83% 30.24 in 10.0 mi Calm Calm - N/A   Partly Cloudy
6:53 PM -6.0 °F -11.0 °F 79% 30.25 in 10.0 mi Calm Calm - N/A   Partly Cloudy
7:53 PM -9.9 °F -14.1 °F 82% 30.26 in 10.0 mi Calm Calm - N/A   Partly Cloudy
8:53 PM -11.9 °F -17.0 °F 78% 30.25 in 10.0 mi Calm Calm - N/A   Partly Cloudy
9:53 PM -14.1 °F -18.9 °F 79% 30.24 in 10.0 mi Calm Calm - N/A   Partly Cloudy
10:53 PM -16.1 °F -20.9 °F 79% 30.23 in 10.0 mi Calm Calm - N/A   Clear
11:53 PM -17.0 °F -23.1 °F 74% 30.22 in 10.0 mi Calm Calm - N/A   Clear